Time,TemperatureF,DewpointF,PressureIn,WindDirection,WindDirectionDegrees,WindSpeedMPH,WindSpeedGustMPH,Humidity,HourlyPrecipIn,Conditions,Clouds,dailyrainin,SoftwareType,DateUTC
2013-03-05 08:10:00,43.7,30.3,30.23,NE,36,1.0,1.0,59,0.00,,,0.00,Wunderground v.1.15,2013-03-05 15:10:00,
2013-03-05 08:16:00,44.2,30.8,30.23,NE,37,0.0,1.0,59,0.00,,,0.00,Wunderground v.1.15,2013-03-05 15:16:00,
2013-03-05 08:25:00,45.7,31.3,30.23,NE,37,0.0,0.0,57,0.00,,,0.00,Wunderground v.1.15,2013-03-05 15:25:00,
2013-03-05 08:30:00,46.4,32.0,30.23,North,356,0.0,0.0,57,0.00,,,0.00,Wunderground v.1.15,2013-03-05 15:30:00,
2013-03-05 08:35:00,47.1,31.7,30.23,North,7,0.0,0.0,55,0.00,,,0.00,Wunderground v.1.15,2013-03-05 15:35:00,
2013-03-05 08:40:00,48.4,32.0,30.24,NNE,21,0.0,0.0,53,0.00,,,0.00,Wunderground v.1.15,2013-03-05 15:40:00,
2013-03-05 08:45:00,49.5,32.1,30.23,ENE,62,0.0,0.0,51,0.00,,,0.00,Wunderground v.1.15,2013-03-05 15:45:00,
2013-03-05 08:55:00,50.2,31.8,30.24,East,81,1.0,1.0,49,0.00,,,0.00,Wunderground v.1.15,2013-03-05 15:55:00,
2013-03-05 09:00:00,50.2,32.3,30.24,NNE,27,1.0,1.0,50,0.00,,,0.00,Wunderground v.1.15,2013-03-05 16:00:00,
2013-03-05 09:10:00,50.7,31.7,30.23,NE,39,1.0,1.0,48,0.00,,,0.00,Wunderground v.1.15,2013-03-05 16:10:00,
2013-03-05 09:15:00,51.3,31.7,30.23,North,11,0.0,1.0,47,0.00,,,0.00,Wunderground v.1.15,2013-03-05 16:15:00,
2013-03-05 09:25:00,52.1,31.9,30.23,East,96,1.0,1.0,46,0.00,,,0.00,Wunderground v.1.15,2013-03-05 16:25:00,
2013-03-05 09:31:00,52.6,31.8,30.23,NE,46,1.0,3.0,45,0.00,,,0.00,Wunderground v.1.15,2013-03-05 16:31:00,
2013-03-05 09:40:00,53.4,32.0,30.23,East,80,2.0,2.0,44,0.00,,,0.00,Wunderground v.1.15,2013-03-05 16:40:00,
2013-03-05 09:45:00,53.7,32.3,30.23,NE,53,2.0,2.0,44,0.00,,,0.00,Wunderground v.1.15,2013-03-05 16:45:00,
2013-03-05 09:55:00,54.6,32.5,30.23,ESE,110,2.0,2.0,43,0.00,,,0.00,Wunderground v.1.15,2013-03-05 16:55:00,
2013-03-05 10:01:00,55.0,31.1,30.23,East,101,2.0,2.0,40,0.00,,,0.00,Wunderground v.1.15,2013-03-05 17:01:00,
2013-03-05 10:10:00,55.1,31.8,30.22,NE,51,2.0,3.0,41,0.00,,,0.00,Wunderground v.1.15,2013-03-05 17:10:00,
2013-03-05 10:15:00,55.9,31.3,30.22,NNE,19,1.0,4.0,39,0.00,,,0.00,Wunderground v.1.15,2013-03-05 17:15:00,
2013-03-05 10:25:00,57.2,32.4,30.21,ENE,67,2.0,2.0,39,0.00,,,0.00,Wunderground v.1.15,2013-03-05 17:25:00,
2013-03-05 10:31:00,58.2,32.7,30.21,North,354,2.0,4.0,38,0.00,,,0.00,Wunderground v.1.15,2013-03-05 17:31:00,
2013-03-05 10:40:00,58.4,32.9,30.21,NNE,31,1.0,2.0,38,0.00,,,0.00,Wunderground v.1.15,2013-03-05 17:40:00,
2013-03-05 10:45:00,58.9,32.7,30.20,North,11,1.0,3.0,37,0.00,,,0.00,Wunderground v.1.15,2013-03-05 17:45:00,
2013-03-05 10:55:00,60.2,33.1,30.20,ENE,63,2.0,2.0,36,0.00,,,0.00,Wunderground v.1.15,2013-03-05 17:55:00,
2013-03-05 11:00:00,60.2,32.4,30.20,ENE,75,2.0,2.0,35,0.00,,,0.00,Wunderground v.1.15,2013-03-05 18:00:00,
2013-03-05 11:10:00,60.3,31.8,30.20,ESE,102,1.0,1.0,34,0.00,,,0.00,Wunderground v.1.15,2013-03-05 18:10:00,
2013-03-05 11:20:00,61.4,30.5,30.20,NE,46,1.0,1.0,31,0.00,,,0.00,Wunderground v.1.15,2013-03-05 18:20:00,
2013-03-05 11:25:00,61.7,30.7,30.19,South,183,1.0,5.0,31,0.00,,,0.00,Wunderground v.1.15,2013-03-05 18:25:00,
2013-03-05 11:30:00,62.2,29.5,30.19,East,101,2.0,2.0,29,0.00,,,0.00,Wunderground v.1.15,2013-03-05 18:30:00,
2013-03-05 11:40:00,63.2,29.5,30.19,NNW,330,2.0,2.0,28,0.00,,,0.00,Wunderground v.1.15,2013-03-05 18:40:00,
2013-03-05 11:45:00,63.5,30.6,30.19,SW,219,2.0,3.0,29,0.00,,,0.00,Wunderground v.1.15,2013-03-05 18:45:00,
2013-03-05 11:55:00,65.0,30.2,30.19,East,92,2.0,3.0,27,0.00,,,0.00,Wunderground v.1.15,2013-03-05 18:55:00,
2013-03-05 12:00:00,64.8,30.9,30.19,SSW,205,2.0,2.0,28,0.00,,,0.00,Wunderground v.1.15,2013-03-05 19:00:00,
2013-03-05 12:10:00,65.4,29.6,30.18,West,267,2.0,2.0,26,0.00,,,0.00,Wunderground v.1.15,2013-03-05 19:10:00,
2013-03-05 12:15:00,65.7,28.9,30.18,SSE,153,4.0,6.0,25,0.00,,,0.00,Wunderground v.1.15,2013-03-05 19:15:00,
2013-03-05 12:25:00,65.8,29.0,30.17,ESE,105,2.0,4.0,25,0.00,,,0.00,Wunderground v.1.15,2013-03-05 19:25:00,
2013-03-05 12:30:00,66.0,29.1,30.17,ENE,76,2.0,4.0,25,0.00,,,0.00,Wunderground v.1.15,2013-03-05 19:30:00,
2013-03-05 12:40:00,67.0,29.0,30.16,East,98,2.0,2.0,24,0.00,,,0.00,Wunderground v.1.15,2013-03-05 19:40:00,
2013-03-05 12:45:00,67.2,30.2,30.16,South,169,2.0,2.0,25,0.00,,,0.00,Wunderground v.1.15,2013-03-05 19:45:00,
2013-03-05 12:55:00,67.2,28.1,30.15,East,99,3.0,3.0,23,0.00,,,0.00,Wunderground v.1.15,2013-03-05 19:55:00,
2013-03-05 13:00:00,68.1,27.8,30.15,South,179,3.0,6.0,22,0.00,,,0.00,Wunderground v.1.15,2013-03-05 20:00:00,
2013-03-05 13:10:00,68.4,26.9,30.14,South,191,3.0,3.0,21,0.00,,,0.00,Wunderground v.1.15,2013-03-05 20:10:00,
2013-03-05 13:16:00,68.6,25.9,30.14,South,172,2.0,3.0,20,0.00,,,0.00,Wunderground v.1.15,2013-03-05 20:16:00,
2013-03-05 13:25:00,70.3,27.3,30.13,SSE,153,2.0,6.0,20,0.00,,,0.00,Wunderground v.1.15,2013-03-05 20:25:00,
2013-03-05 13:30:00,70.7,27.6,30.12,ESE,103,2.0,4.0,20,0.00,,,0.00,Wunderground v.1.15,2013-03-05 20:30:00,
2013-03-05 13:40:00,70.8,26.5,30.12,South,189,4.0,4.0,19,0.00,,,0.00,Wunderground v.1.15,2013-03-05 20:40:00,
2013-03-05 13:46:00,70.1,25.9,30.11,South,183,4.0,7.0,19,0.00,,,0.00,Wunderground v.1.15,2013-03-05 20:46:00,
2013-03-05 13:55:00,70.9,25.2,30.11,SSE,159,4.0,4.0,18,0.00,,,0.00,Wunderground v.1.15,2013-03-05 20:55:00,
2013-03-05 14:00:00,70.3,26.1,30.10,ENE,77,3.0,3.0,19,0.00,,,0.00,Wunderground v.1.15,2013-03-05 21:00:00,
2013-03-05 14:10:00,70.1,25.9,30.10,ESE,122,3.0,3.0,19,0.00,,,0.00,Wunderground v.1.15,2013-03-05 21:10:00,
2013-03-05 14:16:00,70.5,26.2,30.10,ESE,103,3.0,4.0,19,0.00,,,0.00,Wunderground v.1.15,2013-03-05 21:16:00,
2013-03-05 14:25:00,70.8,26.5,30.09,NE,41,3.0,3.0,19,0.00,,,0.00,Wunderground v.1.15,2013-03-05 21:25:00,
2013-03-05 14:30:00,70.6,26.3,30.09,SE,145,3.0,3.0,19,0.00,,,0.00,Wunderground v.1.15,2013-03-05 21:30:00,
2013-03-05 14:40:00,70.7,25.1,30.09,South,180,5.0,7.0,18,0.00,,,0.00,Wunderground v.1.15,2013-03-05 21:40:00,
2013-03-05 14:45:00,69.8,24.3,30.08,SSW,193,6.0,8.0,18,0.00,,,0.00,Wunderground v.1.15,2013-03-05 21:45:00,
2013-03-05 14:55:00,69.1,23.8,30.08,SSW,202,7.0,10.0,18,0.00,,,0.00,Wunderground v.1.15,2013-03-05 21:55:00,
2013-03-05 15:01:00,68.8,23.5,30.08,SSE,168,7.0,9.0,18,0.00,,,0.00,Wunderground v.1.15,2013-03-05 22:01:00,
2013-03-05 15:10:00,68.9,23.6,30.08,SW,221,6.0,6.0,18,0.00,,,0.00,Wunderground v.1.15,2013-03-05 22:10:00,
2013-03-05 15:15:00,68.5,24.6,30.08,SSW,212,6.0,6.0,19,0.00,,,0.00,Wunderground v.1.15,2013-03-05 22:15:00,
2013-03-05 15:25:00,69.0,26.2,30.08,SSE,152,5.0,6.0,20,0.00,,,0.00,Wunderground v.1.15,2013-03-05 22:25:00,
2013-03-05 15:31:00,69.4,24.0,30.08,SW,233,5.0,7.0,18,0.00,,,0.00,Wunderground v.1.15,2013-03-05 22:31:00,
2013-03-05 15:40:00,68.9,22.2,30.08,SSW,210,7.0,9.0,17,0.00,,,0.00,Wunderground v.1.15,2013-03-05 22:40:00,
2013-03-05 15:45:00,68.8,22.2,30.08,SSW,193,7.0,9.0,17,0.00,,,0.00,Wunderground v.1.15,2013-03-05 22:45:00,
2013-03-05 15:55:00,68.1,26.7,30.08,SE,143,7.0,8.0,21,0.00,,,0.00,Wunderground v.1.15,2013-03-05 22:55:00,
2013-03-05 16:00:00,67.8,26.4,30.08,SW,218,6.0,6.0,21,0.00,,,0.00,Wunderground v.1.15,2013-03-05 23:00:00,
2013-03-05 16:10:00,67.4,28.3,30.08,SW,217,6.0,6.0,23,0.00,,,0.00,Wunderground v.1.15,2013-03-05 23:10:00,
2013-03-05 16:15:00,66.9,28.9,30.08,SSE,153,7.0,8.0,24,0.00,,,0.00,Wunderground v.1.15,2013-03-05 23:15:00,
2013-03-05 16:25:00,66.8,28.8,30.08,SW,221,5.0,6.0,24,0.00,,,0.00,Wunderground v.1.15,2013-03-05 23:25:00,
2013-03-05 16:30:00,66.6,28.6,30.08,SSW,212,6.0,7.0,24,0.00,,,0.00,Wunderground v.1.15,2013-03-05 23:30:00,
2013-03-05 16:40:00,66.1,29.2,30.08,WSW,243,7.0,11.0,25,0.00,,,0.00,Wunderground v.1.15,2013-03-05 23:40:00,
2013-03-05 16:45:00,65.8,29.0,30.08,SSW,199,8.0,11.0,25,0.00,,,0.00,Wunderground v.1.15,2013-03-05 23:45:00,
2013-03-05 16:55:00,65.3,28.5,30.08,SSW,210,7.0,8.0,25,0.00,,,0.00,Wunderground v.1.15,2013-03-05 23:55:00,
2013-03-05 17:01:00,65.1,28.4,30.08,South,177,8.0,8.0,25,0.00,,,0.00,Wunderground v.1.15,2013-03-06 00:01:00,
2013-03-05 17:10:00,64.8,29.1,30.08,South,177,7.0,8.0,26,0.00,,,0.00,Wunderground v.1.15,2013-03-06 00:10:00,
2013-03-05 17:15:00,64.7,28.0,30.08,SSW,202,7.0,8.0,25,0.00,,,0.00,Wunderground v.1.15,2013-03-06 00:15:00,
2013-03-05 17:25:00,64.4,28.7,30.08,SSW,196,7.0,10.0,26,0.00,,,0.00,Wunderground v.1.15,2013-03-06 00:25:00,
2013-03-05 17:30:00,64.1,28.5,30.08,SW,217,7.0,11.0,26,0.00,,,0.00,Wunderground v.1.15,2013-03-06 00:30:00,
2013-03-05 17:40:00,63.7,28.1,30.08,SW,232,6.0,8.0,26,0.00,,,0.00,Wunderground v.1.15,2013-03-06 00:40:00,
2013-03-05 17:45:00,63.3,28.7,30.07,SW,221,5.0,8.0,27,0.00,,,0.00,Wunderground v.1.15,2013-03-06 00:45:00,
2013-03-05 17:55:00,62.8,28.3,30.07,WSW,240,5.0,5.0,27,0.00,,,0.00,Wunderground v.1.15,2013-03-06 00:55:00,
2013-03-05 18:01:00,62.6,29.0,30.07,South,190,5.0,5.0,28,0.00,,,0.00,Wunderground v.1.15,2013-03-06 01:01:00,
2013-03-05 18:10:00,61.9,28.4,30.07,South,184,4.0,4.0,28,0.00,,,0.00,Wunderground v.1.15,2013-03-06 01:10:00,
2013-03-05 18:15:00,61.5,28.9,30.07,SSW,207,3.0,4.0,29,0.00,,,0.00,Wunderground v.1.15,2013-03-06 01:15:00,
2013-03-05 18:25:00,60.5,28.9,30.08,SW,231,1.0,2.0,30,0.00,,,0.00,Wunderground v.1.15,2013-03-06 01:25:00,
2013-03-05 18:30:00,59.9,28.4,30.08,SW,219,1.0,2.0,30,0.00,,,0.00,Wunderground v.1.15,2013-03-06 01:30:00,
2013-03-05 18:40:00,58.9,28.3,30.08,SSW,207,2.0,2.0,31,0.00,,,0.00,Wunderground v.1.15,2013-03-06 01:40:00,
2013-03-05 18:46:00,58.2,28.5,30.08,SW,235,2.0,2.0,32,0.00,,,0.00,Wunderground v.1.15,2013-03-06 01:46:00,
2013-03-05 18:55:00,57.1,28.2,30.08,SSW,206,2.0,2.0,33,0.00,,,0.00,Wunderground v.1.15,2013-03-06 01:55:00,
2013-03-05 19:00:00,56.7,28.6,30.08,SW,229,2.0,2.0,34,0.00,,,0.00,Wunderground v.1.15,2013-03-06 02:00:00,
2013-03-05 19:10:00,55.2,27.3,30.08,SW,233,2.0,2.0,34,0.00,,,0.00,Wunderground v.1.15,2013-03-06 02:10:00,
2013-03-05 19:15:00,54.6,27.5,30.08,South,187,1.0,2.0,35,0.00,,,0.00,Wunderground v.1.15,2013-03-06 02:15:00,
2013-03-05 19:25:00,54.9,27.0,30.08,WSW,238,1.0,1.0,34,0.00,,,0.00,Wunderground v.1.15,2013-03-06 02:25:00,
2013-03-05 19:30:00,55.2,27.3,30.08,WSW,244,1.0,3.0,34,0.00,,,0.00,Wunderground v.1.15,2013-03-06 02:30:00,
2013-03-05 19:40:00,56.2,27.4,30.08,SW,231,2.0,2.0,33,0.00,,,0.00,Wunderground v.1.15,2013-03-06 02:40:00,
2013-03-05 19:45:00,56.3,26.8,30.08,SW,231,2.0,2.0,32,0.00,,,0.00,Wunderground v.1.15,2013-03-06 02:45:00,
2013-03-05 19:55:00,56.6,27.0,30.08,SW,230,2.0,2.0,32,0.00,,,0.00,Wunderground v.1.15,2013-03-06 02:55:00,
2013-03-05 20:00:00,56.9,27.3,30.08,SW,224,2.0,2.0,32,0.00,,,0.00,Wunderground v.1.15,2013-03-06 03:00:00,
2013-03-05 20:10:00,57.0,26.6,30.08,SW,227,2.0,2.0,31,0.00,,,0.00,Wunderground v.1.15,2013-03-06 03:10:00,
2013-03-05 20:15:00,56.9,27.3,30.08,SW,226,1.0,2.0,32,0.00,,,0.00,Wunderground v.1.15,2013-03-06 03:15:00,
2013-03-05 20:25:00,56.2,26.7,30.08,SW,231,1.0,1.0,32,0.00,,,0.00,Wunderground v.1.15,2013-03-06 03:25:00,
2013-03-05 20:30:00,56.4,26.9,30.08,SW,226,1.0,1.0,32,0.00,,,0.00,Wunderground v.1.15,2013-03-06 03:30:00,
2013-03-05 20:40:00,55.6,26.9,30.08,SSW,200,1.0,1.0,33,0.00,,,0.00,Wunderground v.1.15,2013-03-06 03:40:00,
2013-03-05 20:45:00,55.2,27.3,30.08,SW,233,1.0,2.0,34,0.00,,,0.00,Wunderground v.1.15,2013-03-06 03:45:00,
2013-03-05 20:55:00,55.6,26.9,30.08,SW,233,1.0,1.0,33,0.00,,,0.00,Wunderground v.1.15,2013-03-06 03:55:00,